Regional Weather Roundup
Issued by NWS

Home | Current Version | Previous Version | Graphics & Text | Print | Product List | Glossary On
Versions: 1 2 3 4 5 6 7 8 9 10 11 12 13 14 15 16 17 18 19 20 21 22 23 24 25 26 27 28 29 30 31 32 33 34 35 36 37 38 39 40 41 42 43 44 45 46 47 48 49 50
000
ASUS43 KMKX 260611
RWRWI

WISCONSIN REGIONAL WEATHER ROUNDUP
NATIONAL WEATHER SERVICE MILWAUKEE/SULLIVAN WI
100 AM CDT SAT JUL 26 2014

NOTE: "FAIR" INDICATES FEW OR NO CLOUDS BELOW 12,000 FEET WITH NO
SIGNIFICANT WEATHER AND/OR OBSTRUCTIONS TO VISIBILITY.

WIZ001-002-006>008-014>016-023>028-260700-
NORTHWEST WISCONSIN

CITY           SKY/WX    TMP DP  RH WIND       PRES   REMARKS
SUPERIOR ARPT  CLOUDY    66  64  94 CALM      29.77S
6HR MIN TEMP:  63; 6HR MAX TEMP:  66;

ASHLAND        CLOUDY    69  65  86 S5        29.79S
6HR MIN TEMP:  68; 6HR MAX TEMP:  70;

HAYWARD        LGT RAIN  68  67  96 S6        29.81F
6HR MIN TEMP:  67; 6HR MAX TEMP:  68; 6HR PCP:  0.01;

SIREN          CLOUDY    71  67  88 S6        29.80F
6HR MIN TEMP:  71; 6HR MAX TEMP:  71;

RICE LAKE      CLOUDY    69  65  88 S3        29.84S
6HR MIN TEMP:  69; 6HR MAX TEMP:  71;

LADYSMITH      CLOUDY    68  64  89 S3        29.85F
6HR MIN TEMP:  68; 6HR MAX TEMP:  69;

EAU CLAIRE     CLOUDY    70  67  90 S9        29.82F
6HR MIN TEMP:  70; 6HR MAX TEMP:  75; 6HR PCP:  0.01;

MENOMONIE      CLOUDY    70  67  90 S7        29.83S
6HR MIN TEMP:  70; 6HR MAX TEMP:  75;

NEW RICHMOND   CLOUDY    70  69  97 S6        29.82S
6HR MIN TEMP:  70; 6HR MAX TEMP:  74;

OSCEOLA        CLOUDY    72  71  97 CALM      29.83S
6HR MIN TEMP:  72; 6HR MAX TEMP:  75;

$$

WIZ003>005-009-010-017-018-260700-
NORTH CENTRAL WISCONSIN

CITY           SKY/WX    TMP DP  RH WIND       PRES   REMARKS
WOODRUFF       CLOUDY    65  62  91 SW6       29.85R
6HR MIN TEMP:  64; 6HR MAX TEMP:  67;

RHINELANDER    CLOUDY    64  61  90 SW12      29.86F
6HR MIN TEMP:  63; 6HR MAX TEMP:  64;

EAGLE RIVER    CLOUDY    64  63  95 SW6       29.84F
6HR MIN TEMP:  64; 6HR MAX TEMP:  65;

LAND O LAKES   CLOUDY    65  63  91 SW5       29.84F
6HR MIN TEMP:  65; 6HR MAX TEMP:  66;

PHILLIPS       CLOUDY    64  64  97 S5        29.84F
6HR MIN TEMP:  64; 6HR MAX TEMP:  66; 6HR PCP:  0.04;

TOMAHAWK       HVY RAIN  64  61  91 CALM      29.87S
6HR MIN TEMP:  64; 6HR MAX TEMP:  65; 6HR PCP:  0.03;

MEDFORD        CLOUDY    64  62  93 S8        29.87F
6HR MIN TEMP:  64; 6HR MAX TEMP:  67;

MERRILL        CLOUDY    65  63  92 SW6       29.86F
6HR MIN TEMP:  65; 6HR MAX TEMP:  66;

$$

WIZ029-030-035-036-043>047-260700-
CENTRAL WISCONSIN

CITY           SKY/WX    TMP DP  RH WIND       PRES   REMARKS
WAUSAU         CLOUDY    66  62  87 SW8       29.86S
6HR MIN TEMP:  66; 6HR MAX TEMP:  68;

MOSINEE        CLOUDY    63  63 100 S9        29.88F
MARSHFIELD     CLOUDY    65  62  90 SW9       29.87R
6HR MIN TEMP:  64; 6HR MAX TEMP:  70;

STEVENS POINT  PTCLDY    62  60  93 S7        29.88F
6HR MIN TEMP:  62; 6HR MAX TEMP:  67;

WAUPACA        CLOUDY    67  63  85 S6        29.88S
6HR MIN TEMP:  67; 6HR MAX TEMP:  73;

WAUTOMA        PTCLDY    65  62  90 S5        29.89S
6HR MIN TEMP:  65; 6HR MAX TEMP:  71;

WISC RAPIDS    PTCLDY    65  62  90 S8        29.88F
6HR MIN TEMP:  64; 6HR MAX TEMP:  70;

CAMP DOUGLAS   MOCLDY    64  64 100 S3        29.87F
6HR MIN TEMP:  63; 6HR MAX TEMP:  71;

$$

WIZ011>013-019>022-031-037>040-048>050-260700-
NORTHEAST WISCONSIN

CITY           SKY/WX    TMP DP  RH WIND       PRES   REMARKS
ANTIGO         CLOUDY    63  61  94 SW6       29.87F
6HR MIN TEMP:  61; 6HR MAX TEMP:  64;

STURGEON BAY   MOCLDY    63  57  82 S7        29.86S
6HR MIN TEMP:  63; 6HR MAX TEMP:  66;

GREEN BAY      PTCLDY    66  61  84 SW3       29.86S
6HR MIN TEMP:  65; 6HR MAX TEMP:  73;

MANITOWOC      PTCLDY    67  61  81 SW8       29.86F
6HR MIN TEMP:  65; 6HR MAX TEMP:  67;

APPLETON       MOCLDY    64  61  88 SW10      29.88S
CLINTONVILLE   CLOUDY    64  61  88 SW7       29.86S
OSHKOSH        PTCLDY    65  62  90 SW6       29.88S
6HR MIN TEMP:  65; 6HR MAX TEMP:  71;

$$

WIZ032>034-041-042-053>061-260700-
SOUTHWEST WISCONSIN

CITY           SKY/WX    TMP DP  RH WIND       PRES   REMARKS
LA CROSSE      LGT RAIN  69  66  90 SE9       29.86S FOG
6HR MIN TEMP:  69; 6HR MAX TEMP:  76; 6HR PCP: TRACE;

SPARTA         CLOUDY    67  61  80 W3        29.89S
6HR MIN TEMP:  67; 6HR MAX TEMP:  73;

VIROQUA        CLOUDY    65  65 100 CALM      29.90S
6HR MIN TEMP:  65; 6HR MAX TEMP:  70;

BOSCOBEL       CLOUDY    68  64  87 CALM      29.88F
6HR MIN TEMP:  67; 6HR MAX TEMP:  72;

PRAIRIE DU CHI CLOUDY    66  64  90 E5        29.86F
PLATTEVILLE    CLOUDY    65  62  89 SE6       29.89F
6HR MIN TEMP:  65; 6HR MAX TEMP:  69;

$$

WIZ056-057-062-063-064-067-068-260700-
SOUTH CENTRAL WISCONSIN

CITY           SKY/WX    TMP DP  RH WIND       PRES   REMARKS
BARABOO/DELLS  CLOUDY    65  60  83 SW5       29.89S
6HR MIN TEMP:  64; 6HR MAX TEMP:  69;

LONE ROCK      CLOUDY    71  63  75 S3        29.89R
6HR MIN TEMP:  71; 6HR MAX TEMP:  73;

WATERTOWN      CLEAR     62  60  94 CALM      29.89F
6HR MIN TEMP:  62; 6HR MAX TEMP:  70;

MADISON        PTCLDY    67  60  78 S7        29.89S
6HR MIN TEMP:  67; 6HR MAX TEMP:  71;

MIDDLETON      FAIR      66  60  82 S6        29.89F
6HR MIN TEMP:  66; 6HR MAX TEMP:  70;

MONROE         CLOUDY    64  61  88 S9        29.89F
JANESVILLE     CLEAR     64  57  77 S3        29.89F
$$

WIZ051-052-058>065-066-070>072-260700-
SOUTHEAST WISCONSIN

CITY           SKY/WX    TMP DP  RH WIND       PRES   REMARKS
MILWAUKEE      PTCLDY    66  59  78 SW7       29.90S
6HR MIN TEMP:  66; 6HR MAX TEMP:  73;

WAUKESHA       CLEAR     61  57  88 S3        29.92S
MILWAUKEE/TIMM CLEAR     63  57  82 S5        29.91S
RACINE         CLEAR     65  59  81 SW5       29.92S
6HR MIN TEMP:  64; 6HR MAX TEMP:  73;

BURLINGTON     CLEAR     60  58  94 S3        29.91S
6HR MIN TEMP:  60; 6HR MAX TEMP:  69;

KENOSHA        CLEAR     65  60  84 SW5       29.91F
6HR MIN TEMP:  64; 6HR MAX TEMP:  72;

FOND DU LAC    PTCLDY    65  60  84 SW7       29.89S
6HR MIN TEMP:  63; 6HR MAX TEMP:  71;

SHEBOYGAN      PTCLDY    62  60  93 SW7       29.89S
6HR MIN TEMP:  62; 6HR MAX TEMP:  72;

WEST BEND      PTCLDY    63  57  82 CALM      29.90S
JUNEAU         CLEAR     62  59  88 S3        29.91S
6HR MIN TEMP:  62; 6HR MAX TEMP:  69;

$$

LSZ147-162-260700-
LAKE SUPERIOR

STATION/POSITION TIME  TEMP    WIND        PRES    WAVE
                       AIR SEA DIR/SP/G            HT/PER
                 (UTC) (F)     (DEG/KT/KT) (MB)    (FT/S)
W MID LAKE BUOY  0550   53 49  190/  6/  6 1008.0F   0
PORT WING        0500   71     180/  8/ 12 1007.8F
SAXON HARBOR     0540          190/  6/  9 1008.8R
$$

LMZ867-665-643>646-260700-
LAKE MICHIGAN

STATION/POSITION TIME  TEMP    WIND        PRES    WAVE
                       AIR SEA DIR/SP/G            HT/PER
                 (UTC) (F)     (DEG/KT/KT) (MB)    (FT/S)
N MID LAKE BUOY  0550   60 55  220/ 12/ 14 1009.8F   2/ 5
NORTHPORT PIER   0500   62     180/  4/  8 1010.5S
KEWAUNEE LAKESHO 0500   54     190/  7/  9 1011.7F
SHEBOYGAN LAKESH 0600   67     220/  8/  9 1011.9F
PORT WASHINGTON  0500   63     200/  5/  8 1012.5F
ATWATER BUOY     0500   60     170/  6     1013.4F
MILWAUKEE LAKESH 0500   67     210/  7/  8   N/A
S MID LAKE BUOY  0550   64 61  180/ 10/ 10 1012.8F   1
KENOSHA   LAKESH 0600   67     220/  7/  9 1012.2F
$$

TC  - TEMPERATURE IN CELSIUS
VSB - VISIBILITY IN STATUTE MILES
WCI - WIND CHILL INDEX
HX  - HEAT INDEX



USA.gov is the U.S. government's official web portal to all federal, state and local government web resources and services.